Regional Weather Roundup
Issued by NWS Jackson, KY

Home | Current Version | Previous Version | Graphics & Text | Print | Product List | Glossary On
Versions: 1 2 3 4 5 6 7 8 9 10 11 12 13 14 15 16 17 18 19 20 21 22 23 24 25 26 27 28 29 30 31 32 33 34 35 36 37 38 39 40 41 42 43 44 45 46 47 48 49 50
000
ASUS43 KJKL 260410
RWRJKL

EAST KENTUCKY HOURLY WEATHER ROUNDUP
NATIONAL WEATHER SERVICE JACKSON KY
1200 AM EDT FRI AUG 26 2016

NOTE: "FAIR" INDICATES FEW OR NO CLOUDS BELOW 12,000 FEET WITH
NO SIGNIFICANT WEATHER AND/OR OBSTRUCTIONS TO VISIBILITY.

* THESE REPORTS ARE NOT UNDER NWS QUALITY CONTROL AND MAY NOT
  REPORT WEATHER SUCH AS PRECIPITATION AND FOG.

KYZ079-080-083-085-087-088-110-112-115-119-120-260500
...EASTERN KENTUCKY...

CITY           SKY/WX    TMP DP  RH WIND       PRES   REMARKS
JACKSON        CLEAR     76  72  87 CALM      30.14R
LONDON         PTCLDY    75  71  87 CALM      30.14R
SOMERSET*      PTCLDY    72  72 100 CALM      30.13S
MONTICELLO*    CLEAR    N/A N/A N/A W5        30.14S
WILLIAMSBURG*  PTCLDY    73  73 100 CALM      30.14R
MIDDLESBORO*   PTCLDY    72  72 100 CALM      30.15S
HARLAN APT*    MOCLDY    72  70  94 CALM      30.17R
PIKE CO APT*     N/A     78  72  84 CALM      30.14S
BIG SANDY APT* CLEAR     77  73  87 SW5       30.12F
MOREHEAD APT*  CLEAR     75  70  83 SW6       30.12S
$$

KYZ035-036-041-042-044-050-067-078-099-260500
...CENTRAL KENTUCKY...

CITY           SKY/WX    TMP DP  RH WIND       PRES   REMARKS
MT STERLING*   CLEAR    N/A N/A N/A SW5       30.13R
FLEMING/MASON* CLEAR     75  70  82 SW5       30.10S
DANVILLE*      CLEAR     72  72 100 CALM      30.13R
LEXINGTON      CLEAR     76  71  85 SW5       30.11R
FRANKFORT      CLEAR     75  69  81 CALM      30.09R
LOUISVILLE     PTCLDY    81  70  69 SW3       30.08R
LEBANON*         N/A     75  73  94 S3        30.11S
GLASGOW*       CLEAR     75  75 100 CALM      30.11R
BOWLING GREEN  CLEAR     80  74  81 W3        30.10R
$$

KYZ091>093-OHZ055-061-077-WVZ005-015-034-035-042-260500
...SOUTHERN OHIO/WEST VIRGINIA...

CITY           SKY/WX    TMP DP  RH WIND       PRES   REMARKS
COVINGTON      CLEAR     79  72  79 VRB5      30.09R
COLUMBUS       PTCLDY    77  71  82 W6        30.06R
DAYTON         PTCLDY    75  71  87 W3        30.09S
WILMINGTON     CLEAR     74  72  93 SW3       30.08S
HUNTINGTON     CLEAR     75  73  93 CALM      30.08S
CHARLESTON     PTCLDY    75  72  90 CALM      30.09S
PINEVILLE*     CLEAR     71  67  89 MISG      30.21S FOG
BECKLEY        CLEAR     71  68  90 S5        30.20S
BLUEFIELD      CLEAR     71  68  90 W6        30.23F
LOGAN CO APT*    N/A     73  73 100 CALM      30.13S
$$

VAZ002-007-008-TNZ017-027-036-066-071-260500
...SOUTHWEST VIRGINIA/EAST TENNESSEE...

CITY           SKY/WX    TMP DP  RH WIND       PRES   REMARKS
WISE*          CLEAR     70  68  94 SW3       30.24S
JONESVILLE*      N/A     72  72 100 CALM      30.17S
ABINGDON*      CLEAR     73  71  95 CALM      30.19S
BRISTOL        PTCLDY    72  70  93 CALM      30.16R
MORRISTOWN*    CLEAR     75  73  94 CALM      30.13S
KNOXVILLE      PTCLDY    78  72  81 CALM      30.11S
OAK RIDGE      CLEAR     77  73  87 CALM      30.13S
CROSSVILLE     CLEAR     72  71  97 CALM      30.19S
NASHVILLE      CLEAR     78  75  90 CALM      30.11R
$$

...KEY TO REMARKS...
VSB - VISIBILITY IN MILES
WCI - WIND CHILL INDEX
HX  - HEAT INDEX

$$



USA.gov is the U.S. government's official web portal to all federal, state and local government web resources and services.